Date String (YYYY-MM-DD hh:mm:ss) UTC,Instrument flags,Ambient pressure (hPa),Sample flow (lpm),Bypass flow (lpm),Sample temperature (°C),Ambient temperature (°C),ASC tube jacket temperature (°C),LED temperature (°C),Box temperature (°C),Sample RH (%),Span deviation,Mass concentration (μg/m³),Mass concentration (μg/m³),Mass concentration (μg/m³)
DateTimeUTC,F1_M11,P_M11,Q1_M11,Q2_M11,T1_M11,T2_M11,T3_M11,T4_M11,T5_M11,U1_M11,ZSPAN_M11,X0_M11,X2_M11,X1_M11
2023-01-28 16:00:00,,0819.4,4.99,0.00,22.2,21.3,00.0,31.0,24.0,13.9,0000.0,0008.51,0006.58,0006.47
2023-01-28 16:01:00,,0819.4,5.00,0.00,22.2,21.2,00.0,31.0,24.0,13.9,0000.0,0008.73,0006.59,0006.48
2023-01-28 16:02:00,,0819.4,4.99,0.00,22.2,21.1,00.0,31.0,24.0,14.1,0000.0,0008.71,0006.57,0006.47
2023-01-28 16:03:00,,0819.4,4.98,0.00,22.2,21.0,00.0,31.0,24.0,14.1,0000.0,0008.72,0006.56,0006.47
2023-01-28 16:04:00,,0819.4,4.99,0.00,22.2,21.0,00.0,31.0,24.0,14.1,0000.0,0008.78,0006.57,0006.48
2023-01-28 16:05:00,,0819.4,4.99,0.00,22.2,21.0,00.0,31.0,24.0,14.0,0000.0,0008.80,0006.59,0006.50
2023-01-28 16:06:00,,0819.5,5.00,0.00,22.2,20.9,00.0,31.0,24.0,14.0,0000.0,0008.83,0006.62,0006.53
2023-01-28 16:07:00,,0819.5,5.01,0.00,22.2,20.9,00.0,31.0,24.0,13.9,0000.0,0008.89,0006.66,0006.54
2023-01-28 16:08:00,,0819.4,4.99,0.00,22.2,20.9,00.0,31.0,24.0,13.9,0000.0,0008.88,0006.68,0006.57
2023-01-28 16:09:00,,0819.5,5.00,0.00,22.2,20.9,00.0,31.0,24.0,13.9,0000.0,0008.96,0006.74,0006.63
2023-01-28 16:10:00,,0819.5,5.02,0.00,22.2,20.9,00.0,31.0,24.0,13.8,0000.0,0009.05,0006.81,0006.69
2023-01-28 16:11:00,,0819.4,4.98,0.00,22.2,20.9,00.0,31.0,24.0,13.8,0000.0,0009.14,0006.86,0006.73
2023-01-28 16:12:00,,0819.4,5.03,0.00,22.2,20.9,00.0,31.0,24.0,13.8,0000.0,0008.91,0006.90,0006.77
2023-01-28 16:13:00,,0819.4,5.00,0.00,22.2,20.8,00.0,31.0,24.0,13.8,0000.0,0008.97,0006.94,0006.82
2023-01-28 16:14:00,,0819.5,5.00,0.00,22.2,20.8,00.0,31.1,24.0,13.8,0000.0,0009.04,0007.01,0006.88
2023-01-28 16:15:00,,0819.4,5.00,0.00,22.2,20.7,00.0,31.0,23.9,13.8,0000.0,0009.04,0007.06,0006.93
2023-01-28 16:16:00,,0819.4,4.97,0.00,22.2,20.7,00.0,31.0,23.9,13.9,0000.0,0009.12,0007.10,0006.96
2023-01-28 16:17:00,,0819.5,5.00,0.00,22.2,20.8,00.0,31.0,23.9,13.9,0000.0,0009.17,0007.14,0006.99
2023-01-28 16:18:00,,0819.4,5.00,0.00,22.2,20.8,00.0,31.0,24.0,13.9,0000.0,0009.19,0007.14,0007.00
2023-01-28 16:19:00,,0819.5,5.00,0.00,22.2,20.8,00.0,31.0,23.9,13.9,0000.0,0009.25,0007.16,0007.01
2023-01-28 16:20:00,,0819.5,4.99,0.00,22.2,20.7,00.0,31.0,23.9,13.9,0000.0,0009.27,0007.17,0007.01
2023-01-28 16:21:00,,0819.6,5.00,0.00,22.2,20.8,00.0,31.0,23.9,13.8,0000.0,0009.27,0007.17,0007.00
2023-01-28 16:22:00,,0819.6,5.01,0.00,22.2,20.8,00.0,31.0,23.9,13.7,0000.0,0009.19,0007.16,0006.99
2023-01-28 16:23:00,,0819.6,5.00,0.00,22.2,20.7,00.0,31.0,23.9,13.8,0000.0,0009.15,0007.13,0006.96
2023-01-28 16:24:00,,0819.6,5.01,0.00,22.2,20.7,00.0,31.0,23.9,13.9,0000.0,0009.16,0007.13,0006.95
2023-01-28 16:25:00,,0819.6,5.00,0.00,22.2,20.7,00.0,31.0,23.9,13.8,0000.0,0009.14,0007.11,0006.94
2023-01-28 16:26:00,,0819.5,4.99,0.00,22.1,20.7,00.0,31.0,23.9,13.8,0000.0,0009.11,0007.09,0006.92
2023-01-28 16:27:00,,0819.5,4.98,0.00,22.1,20.9,00.0,31.0,23.9,13.8,0000.0,0009.05,0007.06,0006.90
2023-01-28 16:28:00,,0819.5,4.99,0.00,22.2,21.4,00.0,31.0,24.1,13.8,0000.0,0009.03,0007.05,0006.90
2023-01-28 16:29:00,,0819.6,4.99,0.00,22.4,22.7,00.0,31.0,24.4,13.7,0000.0,0009.04,0007.05,0006.90
2023-01-28 16:30:00,,0819.5,5.02,0.00,22.4,22.3,00.0,31.1,24.4,13.7,0000.0,0009.06,0007.08,0006.93
2023-01-28 16:31:00,,0819.6,5.00,0.00,22.4,21.9,00.0,31.1,24.3,13.7,0000.0,0009.11,0007.11,0006.95
2023-01-28 16:32:00,,0819.6,5.00,0.00,22.4,21.6,00.0,31.1,24.2,13.7,0000.0,0009.17,0007.12,0006.97
2023-01-28 16:33:00,,0819.7,5.00,0.00,22.4,21.3,00.0,31.1,24.1,13.7,0000.0,0009.18,0007.13,0006.99
2023-01-28 16:34:00,,0819.7,4.99,0.00,22.3,21.1,00.0,31.1,24.1,13.7,0000.0,0009.21,0007.16,0007.02
2023-01-28 16:35:00,,0819.6,4.99,0.00,22.3,21.0,00.0,31.1,24.0,13.7,0000.0,0009.29,0007.21,0007.07
2023-01-28 16:36:00,,0819.6,5.01,0.00,22.3,20.9,00.0,31.1,24.0,13.7,0000.0,0009.35,0007.25,0007.11
2023-01-28 16:37:00,,0819.6,5.00,0.00,22.3,20.8,00.0,31.1,24.0,13.7,0000.0,0009.40,0007.27,0007.13
2023-01-28 16:38:00,,0819.6,5.00,0.00,22.3,20.8,00.0,31.1,24.0,13.7,0000.0,0009.45,0007.30,0007.15
2023-01-28 16:39:00,,0819.7,5.03,0.00,22.2,20.7,00.0,31.1,24.0,13.8,0000.0,0009.56,0007.35,0007.18
2023-01-28 16:40:00,,0819.7,5.00,0.00,22.2,20.7,00.0,31.1,23.9,13.8,0000.0,0009.60,0007.39,0007.22
2023-01-28 16:41:00,,0819.7,5.01,0.00,22.2,20.6,00.0,31.1,23.9,13.8,0000.0,0009.59,0007.38,0007.21
2023-01-28 16:42:00,,0819.6,4.98,0.00,22.2,20.6,00.0,31.1,23.9,13.8,0000.0,0009.55,0007.37,0007.21
2023-01-28 16:43:00,,0819.6,4.99,0.00,22.2,20.6,00.0,31.1,23.9,13.9,0000.0,0009.48,0007.36,0007.20
2023-01-28 16:44:00,,0819.6,4.99,0.00,22.1,20.5,00.0,31.1,23.9,13.9,0000.0,0009.46,0007.35,0007.19
2023-01-28 16:45:00,,0819.6,5.00,0.00,22.1,20.4,00.0,31.1,23.8,13.9,0000.0,0009.42,0007.32,0007.17
2023-01-28 16:46:00,,0819.6,4.99,0.00,22.1,20.4,00.0,31.1,23.8,13.9,0000.0,0009.42,0007.32,0007.16
2023-01-28 16:47:00,,0819.6,5.03,0.00,22.0,20.3,00.0,31.0,23.7,14.0,0000.0,0009.39,0007.31,0007.17
2023-01-28 16:48:00,,0819.6,5.01,0.00,22.0,20.3,00.0,31.0,23.7,14.0,0000.0,0009.38,0007.32,0007.17
2023-01-28 16:49:00,,0819.6,4.99,0.00,22.0,20.3,00.0,31.0,23.7,14.0,0000.0,0009.36,0007.31,0007.16
2023-01-28 16:50:00,,0819.6,4.99,0.00,22.0,20.3,00.0,31.0,23.7,14.1,0000.0,0009.30,0007.29,0007.16
2023-01-28 16:51:00,,0819.7,4.99,0.00,22.0,21.1,00.0,30.9,23.9,14.1,0000.0,0009.32,0007.28,0007.14
2023-01-28 16:52:00,,0819.7,5.00,0.00,22.1,22.2,00.0,30.9,24.1,13.9,0000.0,0009.28,0007.24,0007.11
2023-01-28 16:53:00,,0819.6,5.00,0.00,22.2,22.2,00.0,31.0,24.2,13.9,0000.0,0009.26,0007.21,0007.08
2023-01-28 16:54:00,,0819.6,5.02,0.00,22.2,21.7,00.0,31.0,24.1,13.9,0000.0,0009.24,0007.20,0007.06
2023-01-28 16:55:00,,0819.6,4.98,0.00,22.2,21.3,00.0,31.0,24.0,14.0,0000.0,0009.23,0007.18,0007.04
2023-01-28 16:56:00,,0819.7,4.98,0.00,22.2,21.0,00.0,31.0,23.9,14.0,0000.0,0009.26,0007.20,0007.04
2023-01-28 16:57:00,,0819.6,5.01,0.00,22.2,20.8,00.0,31.0,23.9,14.0,0000.0,0009.24,0007.18,0007.03
2023-01-28 16:58:00,,0819.6,4.99,0.00,22.1,20.7,00.0,31.0,23.8,14.0,0000.0,0009.24,0007.16,0007.01
2023-01-28 16:59:00,,0819.6,5.01,0.00,22.1,20.7,00.0,31.0,23.8,14.1,0000.0,0009.23,0007.15,0007.00
